World > North America > United States > South Dakota > Hot Springs   City of Hot Springs, South Dakota

Hot Springs, SD Hourly Weather Updates

Feedback E-mail the Weather

Quick Clicks

Hot Springs, SD Weather Maps

°F °C°F °C
Hot Springs Weather Map
UTC Time: 5/30/2024, 13:15
Your Time:

Hot Springs, SD Regional Weather

Expires:202405301400;;138119
ASUS43 KFSD 301310
RWRSD 

WEATHER ROUNDUP FOR SOUTH DAKOTA
NATIONAL WEATHER SERVICE SIOUX FALLS SD
800 AM CDT THU MAY 30 2024

NOTE: "FAIR" INDICATES FEW OR NO CLOUDS BELOW 12,000 FEET WITH NO
SIGNIFICANT WEATHER AND/OR OBSTRUCTIONS TO VISIBILITY.



SDZ012>016-024>037-041>051-057-063-072>074-301400-
SOUTHWEST AND SOUTH CENTRAL SOUTH DAKOTA
  
CITY           SKY/WX    TMP DP  RH WIND       PRES   REMARKS
RAPID CTY ARPT CLOUDY    54  47  77 N16       29.98R TC  12           
PIERRE         CLOUDY    63  58  83 NW7       29.88R TC  17           
CUSTER         CLOUDY    51  44  77 W6        30.04R TC  11           
ELLSWORTH AFB  PTSUNNY   55  47  74 N18       29.95R TC  13           
PHILIP         CLOUDY    59  56  89 NW13      29.93R TC  15           
PINE RIDGE     MOSUNNY   58  53  84 N10G24    29.98R TC  14           
SPEARFISH        N/A     50  50 100 W8        30.05R TC  10           
WINNER         CLOUDY    65  59  81 S17G25    29.89R TC  18           
$$
 

SKY/WX - Weather  TMP - Temperature  DP - Dew Point  RH - Humidity
WIND - Wind Direction/Speed PRES - Barometric Pressure VSB - Visibility
WCI - Wind Chill Index E13G22 Wind - East Wind 13 mph/Gusts of 22 mph

Trending Headlines

Trending Entertainment Headlines

Hot Springs Radar Loop

Use the map search tool if you want to place a location marker on the radar map...

Hot Springs Quick Facts

National Two Day Weather Forecast


E-mail the Hot Springs Weather Forecast

Voice your opinion or tell us about page issues...